[[{"header":{"parameterUnit":"m.s-1","parameterCategory":1,"la1":30.2991,"la2":30.254,"lo1":-89.0895,"lo2":-89.0444,"dy":0.0017,"dx":0.0017,"nx":28,"ny":28,"refTime":"2025-06-13T09:00:00:Z","depth":0,"parameterNumber":2,"parameterNumberName":"U-component_of_WINDS"},"data":[0,0,0,0,0,0,0,0,0,0,0,0,0,0,0,0,0,0,0,0,0,0,0,0,0,0,0,0,0,0,0,0,0,0,0,0,0,0,0,0,0,0,0,0,0,0,0,0,0,0,0,0,0,0,0,0,0,0,-0.0371,-0.037,0,-0.0252,-0.0251,-0.0249,-0.0199,-0.0199,-0.0199,-0.02,-0.008,-0.0076,-0.0073,0,0,0,0,0,0,0,0,0,0,0,0,0,-0.0557,-0.0554,-0.0372,-0.037,-0.0369,-0.0252,-0.0251,-0.0249,-0.0199,-0.0199,-0.0199,-0.02,-0.0081,-0.0077,-0.0073,0,0,0,0,0,0,0,0,0,0,0,0,0,-0.0461,-0.0553,-0.0372,-0.033,-0.0325,-0.0253,-0.0251,-0.0249,-0.0199,-0.0199,-0.02,-0.02,-0.0082,-0.0077,-0.0072,-0.0034,0,0,-0.0056,-0.0054,0,0,0,0,0,0,0,0,-0.0467,-0.0455,-0.0337,-0.0332,-0.0327,-0.0241,-0.0272,-0.0177,-0.0199,-0.0247,-0.02,-0.02,-0.0133,-0.0124,-0.0101,-0.0028,-0.0023,-0.0056,-0.0053,-0.0051,-0.0049,0,0,0,0,0,0,0,-0.0473,-0.0459,-0.0324,-0.0336,-0.0329,-0.0317,-0.0304,-0.0254,-0.019,-0.0243,-0.0239,-0.0225,-0.013,-0.0106,-0.0098,-0.0021,-0.0056,-0.0052,-0.0048,-0.0046,0.009,0.009,0,0,0,0,0,0,-0.0487,-0.0465,-0.0328,-0.0321,-0.0399,-0.0313,-0.0298,-0.0268,-0.019,-0.0178,-0.0225,-0.0223,-0.0114,-0.0104,-0.0093,-0.0042,-0.0051,-0.0046,-0.0043,0.0089,0.009,0.009,0,0,0,0,0,0,-0.0491,-0.0475,-0.0333,-0.0392,-0.0373,-0.031,-0.0276,-0.0265,-0.0241,-0.0176,-0.0165,-0.0212,-0.0114,-0.01,-0.0048,-0.0037,-0.0044,-0.0039,0.0088,0.0089,0.009,0.0059,0,0,0,0,0,0,-0.0497,-0.0477,-0.0462,-0.0392,-0.037,-0.029,-0.0275,-0.0263,-0.0232,-0.0229,-0.0161,-0.015,-0.0113,-0.0056,-0.0043,-0.003,-0.0035,0.0088,0.0089,0.009,0.0059,0.0059,0.0058,0,0,0,0,0,-0.0503,-0.0476,-0.0461,-0.0445,-0.0349,-0.029,-0.0277,-0.0235,-0.0231,-0.0215,-0.0174,-0.0152,-0.0041,-0.0052,-0.0037,-0.0022,0.0087,0.0088,0.009,0.006,0.0059,0.0058,0,0,0,0,0,0,-0.0547,-0.0466,-0.0449,-0.0398,-0.0351,-0.0281,-0.026,-0.0237,-0.0191,-0.0189,-0.0139,-0.0125,-0.0077,-0.0044,-0.0058,0.002,0.0025,0.0029,-0.0003,-0.0003,-0.0004,-0.0013,-0.0031,0,0,0,0,0,-0.0551,-0.0508,-0.044,-0.0402,-0.0379,-0.0324,-0.0296,-0.0267,-0.0217,-0.0197,-0.0152,-0.0104,-0.0058,-0.0029,0.0016,0.0064,0.008,0.0081,0.0081,0.008,0.0083,0.0112,0.0114,0.0094,0.0094,0.0094,0,0,-0.0558,-0.0508,-0.0485,-0.0409,-0.0369,-0.0327,-0.0307,-0.0264,-0.0231,-0.0191,-0.0138,-0.0104,-0.0047,0.0003,0.0027,0.0032,0.0092,0.0082,0.008,0.0084,0.0113,0.0115,0.0117,0.0095,0.0095,0.0095,0,0,-0.0549,-0.0507,-0.047,-0.043,-0.037,-0.0333,-0.0324,-0.0258,-0.0233,-0.0179,-0.0147,-0.0109,-0.0031,0.0008,0.0038,0.0063,0.0085,0.0076,0.0073,0.0101,0.0102,0.0104,0.0114,0.0116,0.0079,0.0079,0.0079,0,-0.0565,-0.05,-0.0454,-0.0411,-0.0379,-0.0339,-0.0301,-0.0265,-0.0193,-0.0172,-0.0168,-0.0068,-0.0028,0.0033,0.0039,0.0062,0.0074,0.0069,0.0098,0.01,0.0103,0.0113,0.0116,0.0078,0.0078,0.0078,0.0078,0,-0.0522,-0.0477,-0.0455,-0.0385,-0.035,-0.031,-0.0259,-0.0229,-0.0203,-0.0167,-0.0112,-0.0062,-0.0005,0.0011,0.0036,0.0076,0.0077,0.0089,0.0095,0.0102,0.0113,0.0117,0.0076,0.0076,0.0077,0.0077,0,0,-0.0538,-0.0443,-0.0435,-0.0403,-0.0333,-0.0297,-0.0255,-0.0198,-0.0173,-0.0125,-0.0088,-0.0023,-0.0011,0.0024,0.0053,0.0077,0.0095,0.0087,0.0089,0.0087,0.0143,0.0134,0.0138,0.011,0.0111,0.0111,0.0138,0,-0.0519,-0.0441,-0.0398,-0.0339,-0.0296,-0.0257,-0.022,-0.0174,-0.0138,-0.0097,-0.0059,-0.0012,-0.0001,0.002,0.0046,0.0087,0.0107,0.0086,0.0145,0.0146,0.013,0.0143,0.0133,0.0156,0.0143,0.0143,0.0144,0,-0.0486,-0.0437,-0.0373,-0.0307,-0.0287,-0.0255,-0.0199,-0.016,-0.0106,-0.0082,-0.0043,-0.0013,0.0033,0.0035,0.0099,0.0084,0.0111,0.0135,0.0137,0.0144,0.0146,0.0152,0.0165,0.0168,0.015,0.015,0.0149,0,-0.0503,-0.0421,-0.0371,-0.0345,-0.0267,-0.0245,-0.0211,-0.0157,-0.0126,-0.0077,-0.0055,-0.0002,0.0027,0.0067,0.0111,0.0108,0.0171,0.0177,0.0192,0.0191,0.0204,0.0203,0.0222,0.0219,0.0219,0.0219,0.0219,0,-0.0485,-0.0447,-0.0377,-0.0347,-0.0303,-0.0255,-0.0213,-0.0176,-0.0128,-0.009,-0.0054,-0.0019,0.0036,0.0078,0.0112,0.0161,0.0173,0.0194,0.0203,0.0192,0.0189,0.021,0.021,0.022,0.022,0.022,0.022,0,-0.0496,-0.0448,-0.0391,-0.0322,-0.0303,-0.0274,-0.0214,-0.0183,-0.0145,-0.0097,-0.0083,-0.0025,0.0027,0.0074,0.0142,0.0165,0.0214,0.0225,0.0196,0.0201,0.0215,0.0213,0.0249,0.0257,0.0247,0.0247,0.0247,0,-0.0488,-0.0458,-0.0384,-0.0356,-0.0322,-0.0277,-0.0244,-0.0195,-0.0162,-0.0097,-0.0074,-0.002,0.0026,0.0106,0.0155,0.0207,0.022,0.0229,0.0228,0.0216,0.0221,0.0219,0.0223,0.0228,0.0228,0.0228,0.0228,0,-0.0479,-0.0456,-0.0409,-0.0354,-0.0315,-0.0269,-0.0222,-0.0201,-0.0143,-0.0108,-0.0055,-0.0019,0.0052,0.0105,0.0163,0.0198,0.0223,0.0228,0.0235,0.0224,0.0206,0.0217,0.0195,0.0227,0.0227,0.0227,0.0227,0.0227,-0.0479,-0.045,-0.0393,-0.0342,-0.0301,-0.0258,-0.0225,-0.0183,-0.0137,-0.0075,-0.0049,0.0005,0.006,0.0141,0.0175,0.0218,0.0223,0.0232,0.0235,0.0237,0.0235,0.0199,0.0229,0.0229,0.0229,0.0229,0.0229,0,-0.0467,-0.0428,-0.0382,-0.0316,-0.0276,-0.0255,-0.0202,-0.0169,-0.0122,-0.0073,-0.0028,0.0034,0.0087,0.014,0.0195,0.022,0.0233,0.0233,0.0232,0.0239,0.0227,0.0216,0.0221,0.0221,0.0221,0.0221,0.0221,0.0221,-0.0456,-0.0404,-0.0375,-0.0303,-0.0264,-0.021,-0.0181,-0.0141,-0.0101,-0.0033,0.0011,0.0046,0.0096,0.0156,0.0205,0.0219,0.0238,0.0235,0.0253,0.024,0.024,0.024,0.0231,0.0239,0.0239,0.0262,0.0262,0.0263]},{"header":{"parameterUnit":"m.s-1","parameterCategory":1,"la1":30.2991,"la2":30.254,"lo1":-89.0895,"lo2":-89.0444,"dy":0.0017,"dx":0.0017,"nx":28,"ny":28,"refTime":"2025-06-13T09:00:00:Z","depth":0,"parameterNumber":3,"parameterNumberName":"V-component_of_WINDS"},"data":[0,0,0,0,0,0,0,0,0,0,0,0,0,0,0,0,0,0,0,0,0,0,0,0,0,0,0,0,0,0,0,0,0,0,0,0,0,0,0,0,0,0,0,0,0,0,0,0,0,0,0,0,0,0,0,0,0,0,6.076,6.0761,0,6.0815,6.0815,6.0816,6.0761,6.0759,6.0757,6.0755,6.0804,6.0807,6.081,0,0,0,0,0,0,0,0,0,0,0,0,0,6.06,6.0603,6.076,6.0761,6.0761,6.0815,6.0815,6.0816,6.0762,6.0759,6.0756,6.0754,6.0803,6.0807,6.0811,0,0,0,0,0,0,0,0,0,0,0,0,0,6.0663,6.0604,6.076,6.0741,6.074,6.0815,6.0815,6.0816,6.0762,6.0759,6.0756,6.0753,6.0802,6.0806,6.0811,6.0906,0,0,6.0826,6.0828,0,0,0,0,0,0,0,0,6.066,6.0669,6.0743,6.0742,6.0741,6.0778,6.0777,6.0846,6.0763,6.0753,6.0755,6.0751,6.0797,6.0803,6.082,6.0908,6.091,6.0827,6.083,6.0832,6.0833,0,0,0,0,0,0,0,6.0656,6.0667,6.0781,6.0744,6.0743,6.0727,6.0732,6.079,6.0792,6.0754,6.075,6.0758,6.0796,6.0815,6.082,6.0911,6.0827,6.0831,6.0834,6.0836,6.1078,6.1081,0,0,0,0,0,0,6.0654,6.0663,6.078,6.0783,6.0692,6.0732,6.0738,6.0769,6.0792,6.0792,6.076,6.0755,6.0808,6.0815,6.0822,6.0933,6.0832,6.0837,6.0839,6.1074,6.1079,6.1082,0,0,0,0,0,0,6.0651,6.0665,6.0777,6.0722,6.0735,6.0738,6.0773,6.0772,6.0791,6.0797,6.0796,6.078,6.0806,6.0815,6.0885,6.0934,6.0839,6.0843,6.107,6.1076,6.108,6.1157,0,0,0,0,0,0,6.0647,6.0664,6.0702,6.0724,6.0739,6.0843,6.0777,6.0775,6.08,6.0794,6.0815,6.0815,6.0804,6.0878,6.089,6.0939,6.0847,6.1066,6.1073,6.1079,6.115,6.1164,6.1177,0,0,0,0,0,6.0641,6.0721,6.0705,6.0719,6.0786,6.0846,6.0854,6.0842,6.0804,6.0841,6.0845,6.0814,6.0927,6.0886,6.0899,6.095,6.1063,6.1071,6.1078,6.1145,6.1162,6.1176,0,0,0,0,0,0,6.0702,6.0723,6.0706,6.0795,6.0819,6.0836,6.0883,6.0861,6.0894,6.0887,6.0868,6.0873,6.0948,6.0956,6.091,6.1042,6.0988,6.0999,6.1034,6.1051,6.1063,6.106,6.0851,0,0,0,0,0,6.0727,6.0776,6.079,6.0867,6.088,6.088,6.0905,6.0894,6.0917,6.0927,6.0935,6.0957,6.0998,6.1024,6.1062,6.1151,6.1154,6.1193,6.1206,6.1216,6.1226,6.1272,6.1289,6.1108,6.1108,6.1108,0,0,6.0777,6.0794,6.0825,6.088,6.0897,6.0946,6.0889,6.0943,6.0978,6.0934,6.1002,6.1009,6.1032,6.1112,6.1148,6.1121,6.1276,6.1226,6.1235,6.1238,6.1282,6.1299,6.1314,6.1113,6.1112,6.1111,0,0,6.0892,6.0911,6.0977,6.0996,6.1025,6.1023,6.1039,6.106,6.1064,6.1132,6.11,6.114,6.121,6.1228,6.1246,6.1368,6.134,6.138,6.1448,6.1494,6.1508,6.1521,6.1563,6.1579,6.139,6.139,6.139,0,6.095,6.1025,6.1013,6.107,6.1094,6.1059,6.1124,6.1142,6.118,6.1196,6.1166,6.1253,6.1266,6.135,6.1379,6.1396,6.1411,6.1378,6.1508,6.152,6.1531,6.1572,6.1588,6.1394,6.1394,6.1393,6.1393,0,6.1094,6.1146,6.1195,6.1236,6.1265,6.1325,6.132,6.1351,6.1337,6.1338,6.1406,6.1421,6.1461,6.1479,6.1465,6.1561,6.1543,6.1511,6.1456,6.1554,6.1591,6.1606,6.1401,6.1399,6.1398,6.1397,0,0,6.125,6.1283,6.1301,6.1319,6.1347,6.1386,6.1443,6.1484,6.151,6.1537,6.1584,6.1644,6.1614,6.1635,6.1622,6.1662,6.1757,6.1625,6.1625,6.1648,6.1861,6.1885,6.1903,6.1739,6.1742,6.1744,6.1859,0,6.1366,6.147,6.146,6.1557,6.1604,6.1571,6.162,6.1642,6.1644,6.1682,6.1684,6.1727,6.1685,6.1697,6.1735,6.1737,6.1799,6.1729,6.178,6.1782,6.1775,6.1923,6.1949,6.2056,6.1874,6.1876,6.1878,0,6.1515,6.155,6.1653,6.1673,6.1692,6.1738,6.1774,6.1812,6.1834,6.1833,6.1856,6.1837,6.1892,6.1837,6.1912,6.1865,6.1885,6.1889,6.1893,6.1897,6.1836,6.193,6.209,6.2106,6.1901,6.1899,6.1897,0,6.1618,6.169,6.1761,6.1776,6.1802,6.1835,6.1847,6.1867,6.1891,6.1922,6.1937,6.1973,6.1993,6.202,6.201,6.1971,6.2087,6.2031,6.2085,6.2086,6.2111,6.2109,6.2276,6.2125,6.2125,6.2125,6.2124,0,6.1748,6.1812,6.1807,6.185,6.192,6.1907,6.1975,6.1982,6.2,6.2042,6.2015,6.2055,6.2039,6.2077,6.2069,6.2132,6.2141,6.214,6.2137,6.2142,6.2142,6.2154,6.2146,6.2129,6.2128,6.2127,6.2126,0,6.1875,6.1874,6.1949,6.1968,6.1974,6.2024,6.2039,6.2078,6.2078,6.2132,6.2144,6.2143,6.2187,6.2179,6.2227,6.2221,6.2299,6.2287,6.2293,6.229,6.2344,6.2339,6.2524,6.2547,6.2382,6.2384,6.2385,0,6.1958,6.2007,6.2031,6.2059,6.2074,6.2118,6.2143,6.2132,6.2159,6.2188,6.2224,6.2265,6.2297,6.2368,6.237,6.2406,6.2394,6.2456,6.2399,6.2403,6.2394,6.2391,6.2395,6.2467,6.2469,6.2471,6.2472,0,6.2105,6.2103,6.2142,6.2181,6.2213,6.2243,6.227,6.2293,6.2283,6.2315,6.236,6.2386,6.2435,6.2475,6.2508,6.2518,6.2493,6.249,6.2505,6.251,6.2511,6.2511,6.2323,6.2486,6.2485,6.2484,6.2483,6.2482,6.2212,6.2253,6.2277,6.2321,6.2341,6.2366,6.2404,6.241,6.2448,6.2489,6.2479,6.2529,6.2549,6.2591,6.2605,6.2642,6.2619,6.264,6.2645,6.265,6.2656,6.2506,6.2648,6.2648,6.2647,6.2647,6.2647,0,6.2357,6.2371,6.2412,6.2451,6.2486,6.2462,6.249,6.2519,6.2565,6.2586,6.2619,6.267,6.2709,6.2715,6.2752,6.2781,6.277,6.2791,6.2788,6.279,6.2676,6.2659,6.2799,6.2799,6.2799,6.2799,6.2799,6.2799,6.2436,6.2505,6.2505,6.2582,6.2594,6.2645,6.2663,6.2686,6.2703,6.2762,6.2795,6.28,6.2814,6.2852,6.2886,6.2886,6.29,6.2925,6.2921,6.2814,6.2799,6.2784,6.2769,6.2929,6.2929,6.3032,6.3033,6.3034]}]]